Search the data

BODC Cruise Metadata Report for FRV Scotia (748S) cruise 1806S

Introduction

This report collates information from the BODC cruise inventory and oceanographic databases. It presents

Cruise Inventory Information

Long name FRV Scotia (748S) cruise 1806S
Short name 1806S
Objectives and Narrative International Bottom Trawl Survey
Ship FRV Scotia
Departure Port
Departure Date 2006-11-16
Arrival Port
Arrival Date 2006-12-07
Principal Scientist(s) Alexander P Robb (Fisheries Research Services Aberdeen Marine Laboratory)
Responsible Organisation Fisheries Research Services Aberdeen Marine Laboratory
Associated Project(s) RVO611
IHB Sea Areas Visited Inner Seas off the West Coast of Scotland, Irish Sea and St. George's Channel
Marsden Squares Visited 181
Work Area Description West of Scotland, Irish Sea
Work Area Bounding Polygon 50N,10W; 60N,10W; 60N,0E; 50N,0E; 50N,10W
Southern Limit 50N
Northern Limit 60N
Western Limit 10W
Eastern Limit 0E

Cruise Inventory Datasets

Physical oceanography  
CTD stations Quantity: number of stations = 67
Description:  

Cruise Inventory Mooring/Buoy Operations

No information on datasets is currently available

Summary of BODC Data Holdings for the Cruise

National Oceanographic Database

Summary

# Series Instrument Description Parameters
67 CTD/STD cast Chlorophyll pigment concentrations in water bodies
Density of the water column
Electrical conductivity of the water column
Salinity of the water column
Temperature of the water column
Transmittance and attenuance of the water column
Vertical spatial coordinates

Note: Parameter terms are taken from the BODC Parameter Discovery Vocabulary XML (SKOS)

Full List

BODC Reference Instrument Description Date/Time Location  
727449 CTD/STD cast 2006-11-17 08:23Z 58° 51' N, 3° 44' W Click for more
727450 CTD/STD cast 2006-11-17 10:28Z 59° 12' N, 3° 30' W Click for more
727462 CTD/STD cast 2006-11-17 13:17Z 59° 22' N, 3° 58' W Click for more
727474 CTD/STD cast 2006-11-17 15:38Z 59° 13' N, 4° 15' W Click for more
727486 CTD/STD cast 2006-11-17 20:24Z 59° 46' N, 4° 34' W Click for more
727498 CTD/STD cast 2006-11-18 13:44Z 59° 1' N, 5° 51' W Click for more
727505 CTD/STD cast 2006-11-18 15:30Z 58° 47' N, 6° 8' W Click for more
727517 CTD/STD cast 2006-11-21 08:47Z 57° 58' N, 6° 11' W Click for more
727529 CTD/STD cast 2006-11-21 09:21Z 58° 1' N, 6° 13' W Click for more
727530 CTD/STD cast 2006-11-21 12:43Z 58° 13' N, 5° 57' W Click for more
727542 CTD/STD cast 2006-11-21 16:26Z 58° 21' N, 5° 55' W Click for more
727554 CTD/STD cast 2006-11-21 20:48Z 58° 34' N, 6° 9' W Click for more
727566 CTD/STD cast 2006-11-22 08:01Z 58° 49' N, 6° 51' W Click for more
727578 CTD/STD cast 2006-11-22 09:37Z 58° 39' N, 7° 11' W Click for more
727591 CTD/STD cast 2006-11-22 12:40Z 58° 16' N, 7° 22' W Click for more
727609 CTD/STD cast 2006-11-22 15:28Z 58° 25' N, 7° 50' W Click for more
727610 CTD/STD cast 2006-11-22 17:44Z 58° 31' N, 8° 6' W Click for more
727622 CTD/STD cast 2006-11-22 21:39Z 58° 18' N, 8° 28' W Click for more
727634 CTD/STD cast 2006-11-23 08:06Z 58° 2' N, 9° 3' W Click for more
727646 CTD/STD cast 2006-11-23 09:31Z 57° 56' N, 8° 46' W Click for more
727658 CTD/STD cast 2006-11-23 12:59Z 57° 54' N, 9° 27' W Click for more
727671 CTD/STD cast 2006-11-23 16:00Z 57° 45' N, 9° 4' W Click for more
727683 CTD/STD cast 2006-11-23 18:09Z 57° 39' N, 8° 49' W Click for more
727695 CTD/STD cast 2006-11-24 08:00Z 57° 18' N, 8° 27' W Click for more
727702 CTD/STD cast 2006-11-24 10:13Z 57° 19' N, 9° 1' W Click for more
727714 CTD/STD cast 2006-11-24 13:07Z 57° 6' N, 8° 44' W Click for more
727726 CTD/STD cast 2006-11-24 16:04Z 56° 48' N, 9° 1' W Click for more
727738 CTD/STD cast 2006-11-24 18:47Z 56° 48' N, 8° 34' W Click for more
727751 CTD/STD cast 2006-11-25 08:08Z 56° 10' N, 9° 6' W Click for more
727763 CTD/STD cast 2006-11-25 10:13Z 55° 51' N, 9° 0' W Click for more
727775 CTD/STD cast 2006-11-25 12:24Z 55° 39' N, 8° 56' W Click for more
727787 CTD/STD cast 2006-11-25 15:07Z 55° 28' N, 9° 15' W Click for more
727799 CTD/STD cast 2006-11-25 18:01Z 55° 9' N, 9° 22' W Click for more
727806 CTD/STD cast 2006-11-26 08:15Z 53° 45' N, 11° 13' W Click for more
727818 CTD/STD cast 2006-11-26 09:46Z 53° 39' N, 10° 53' W Click for more
727831 CTD/STD cast 2006-11-26 12:54Z 54° 6' N, 10° 43' W Click for more
727843 CTD/STD cast 2006-11-26 15:22Z 54° 17' N, 10° 20' W Click for more
727855 CTD/STD cast 2006-11-26 18:08Z 54° 36' N, 10° 20' W Click for more
727867 CTD/STD cast 2006-11-28 15:08Z 54° 28' N, 9° 22' W Click for more
727879 CTD/STD cast 2006-11-28 16:47Z 54° 36' N, 9° 33' W Click for more
727880 CTD/STD cast 2006-11-28 19:39Z 54° 49' N, 9° 34' W Click for more
727892 CTD/STD cast 2006-11-29 09:06Z 55° 49' N, 8° 20' W Click for more
727911 CTD/STD cast 2006-11-29 16:18Z 55° 31' N, 7° 4' W Click for more
727923 CTD/STD cast 2006-11-29 18:45Z 55° 24' N, 6° 45' W Click for more
727935 CTD/STD cast 2006-11-30 17:41Z 55° 32' N, 7° 51' W Click for more
727947 CTD/STD cast 2006-11-30 21:21Z 55° 22' N, 8° 14' W Click for more
727959 CTD/STD cast 2006-12-01 07:47Z 56° 7' N, 8° 52' W Click for more
727960 CTD/STD cast 2006-12-01 10:16Z 56° 19' N, 8° 23' W Click for more
727972 CTD/STD cast 2006-12-01 13:25Z 56° 3' N, 8° 0' W Click for more
727984 CTD/STD cast 2006-12-02 08:15Z 55° 59' N, 7° 18' W Click for more
727996 CTD/STD cast 2006-12-02 10:28Z 55° 58' N, 6° 38' W Click for more
728011 CTD/STD cast 2006-12-02 13:59Z 56° 24' N, 6° 45' W Click for more
728023 CTD/STD cast 2006-12-02 17:29Z 56° 13' N, 7° 13' W Click for more
728035 CTD/STD cast 2006-12-03 09:10Z 57° 7' N, 6° 43' W Click for more
728047 CTD/STD cast 2006-12-03 18:02Z 57° 9' N, 7° 0' W Click for more
728059 CTD/STD cast 2006-12-04 09:47Z 57° 42' N, 5° 57' W Click for more
728060 CTD/STD cast 2006-12-04 11:59Z 58° 1' N, 5° 45' W Click for more
728072 CTD/STD cast 2006-12-04 16:00Z 58° 33' N, 5° 34' W Click for more
728084 CTD/STD cast 2006-12-04 21:49Z 58° 48' N, 6° 43' W Click for more
728096 CTD/STD cast 2006-12-05 08:17Z 59° 16' N, 6° 30' W Click for more
728103 CTD/STD cast 2006-12-05 08:52Z 59° 15' N, 6° 28' W Click for more
728115 CTD/STD cast 2006-12-05 13:25Z 59° 38' N, 5° 32' W Click for more
728127 CTD/STD cast 2006-12-05 15:41Z 59° 32' N, 5° 10' W Click for more
728139 CTD/STD cast 2006-12-05 18:24Z 59° 19' N, 5° 15' W Click for more
728140 CTD/STD cast 2006-12-06 08:02Z 59° 8' N, 5° 10' W Click for more
728152 CTD/STD cast 2006-12-06 10:13Z 58° 51' N, 4° 40' W Click for more
728164 CTD/STD cast 2006-12-06 12:54Z 58° 39' N, 4° 21' W Click for more

Project Database

No data currently held for this cruise in the BODC Project Database

References

Track Charts

No track charts currently available

Reports

No reports currently available